Satellite-Ground Cal/Val Region Overpasses Predictions

Prediction of Satellite NPP Overpassing Cal/Val Region: PacNW

Region Location: (Latitude: 10.00, Longitude: 139.50) to (Latitude: 22.70, Longitude: 165.60).

Table of predicted overpasses for the next 14.0 days since TLE Epoch: 12/22/2018
Interval Starting Time Starting Location Ending Time Ending Location
1 12/22/2018 14:52:34 ( 22.67, 161.77) 12/22/2018 14:56:09 ( 10.05, 158.77)
2 12/23/2018 03:43:09 ( 10.02, 143.92) 12/23/2018 03:46:44 ( 22.64, 140.92)
3 12/23/2018 14:34:37 ( 18.88, 165.59) 12/23/2018 14:37:08 ( 10.02, 163.52)
4 12/23/2018 16:15:01 ( 22.69, 141.15) 12/23/2018 16:16:57 ( 15.88, 139.50)
5 12/24/2018 03:24:07 ( 10.05, 148.67) 12/24/2018 03:27:42 ( 22.68, 145.67)
6 12/24/2018 15:56:00 ( 22.66, 145.90) 12/24/2018 15:59:35 ( 10.04, 142.90)
7 12/25/2018 03:05:05 ( 10.03, 153.44) 12/25/2018 03:08:40 ( 22.65, 150.44)
8 12/25/2018 15:36:58 ( 22.68, 150.67) 12/25/2018 15:40:34 ( 10.00, 147.65)
9 12/26/2018 02:46:02 ( 10.00, 158.20) 12/26/2018 02:49:38 ( 22.69, 155.18)
10 12/26/2018 15:17:56 ( 22.65, 155.42) 12/26/2018 15:21:31 ( 10.03, 152.42)
11 12/27/2018 02:27:01 ( 10.04, 162.95) 12/27/2018 02:30:36 ( 22.66, 159.95)
12 12/27/2018 14:58:54 ( 22.67, 160.18) 12/27/2018 15:02:29 ( 10.05, 157.18)
13 12/28/2018 02:10:32 ( 19.06, 165.59) 12/28/2018 02:11:34 ( 22.70, 164.70)
14 12/28/2018 03:49:28 ( 10.02, 142.34) 12/28/2018 03:52:51 ( 21.94, 139.51)
15 12/28/2018 14:39:51 ( 22.70, 164.94) 12/28/2018 14:43:27 ( 10.02, 161.93)
16 12/28/2018 16:21:21 ( 22.69, 139.57) 12/28/2018 16:21:25 ( 22.46, 139.51)
17 12/29/2018 03:30:27 ( 10.06, 147.08) 12/29/2018 03:34:02 ( 22.68, 144.08)
18 12/29/2018 16:02:20 ( 22.66, 144.32) 12/29/2018 16:05:55 ( 10.04, 141.32)
19 12/30/2018 03:11:24 ( 10.04, 151.85) 12/30/2018 03:14:59 ( 22.66, 148.85)
20 12/30/2018 15:43:17 ( 22.68, 149.08) 12/30/2018 15:46:53 ( 10.00, 146.07)
21 12/31/2018 02:52:22 ( 10.01, 156.61) 12/31/2018 02:55:58 ( 22.70, 153.60)
22 12/31/2018 15:24:16 ( 22.64, 153.83) 12/31/2018 15:27:51 ( 10.02, 150.83)
23 01/01/2019 02:33:21 ( 10.05, 161.36) 01/01/2019 02:36:56 ( 22.67, 158.36)
24 01/01/2019 15:05:13 ( 22.67, 158.59) 01/01/2019 15:08:48 ( 10.05, 155.59)
25 01/02/2019 02:14:57 ( 12.32, 165.60) 01/02/2019 02:17:53 ( 22.65, 163.12)
26 01/02/2019 03:55:48 ( 10.03, 140.75) 01/02/2019 03:57:19 ( 15.38, 139.51)
27 01/02/2019 14:46:11 ( 22.69, 163.35) 01/02/2019 14:49:47 ( 10.01, 160.34)
28 01/03/2019 03:36:46 ( 10.01, 145.51) 01/03/2019 03:40:22 ( 22.69, 142.49)
29 01/03/2019 14:30:08 ( 12.15, 165.59) 01/03/2019 14:30:44 ( 10.04, 165.10)
30 01/03/2019 16:08:39 ( 22.65, 142.73) 01/03/2019 16:12:14 ( 10.03, 139.73)
31 01/04/2019 03:17:44 ( 10.05, 150.26) 01/04/2019 03:21:19 ( 22.67, 147.26)
32 01/04/2019 15:49:37 ( 22.67, 147.49) 01/04/2019 15:53:12 ( 10.05, 144.49)


NCC Satellite Cal/Val Overpasses Prediction Service
